Wink, TX

12:03 AM CST on February 09, 2016 (GMT -0600)
Winkler County

Weather History for KINK - December, 2013

Change the Weather History Date:

Monday, December 9, 2013

  Actual Average Record
Temperature  
Mean Temperature 32 °F -  
Max Temperature 37 °F 61 °F 81 °F (1939)
Min Temperature 26 °F 29 °F 8 °F (1978)
Degree Days  
Heating Degree Days 34    
Moisture  
Dew Point 27 °F    
Average Humidity 85    
Maximum Humidity 92    
Minimum Humidity 76    
Precipitation  
Precipitation 0.00 in - - ()
Sea Level Pressure  
Sea Level Pressure 30.17 in    
Wind  
Wind Speed 8 mph (NNE)    
Max Wind Speed 15 mph    
Max Gust Speed 18 mph    
Visibility 10 miles    
Events      
Averages and records for this station are not official NWS values.
T = Trace of Precipitation, MM = Missing Value Source: NWS Daily Summary

Daily Weather History Graph

Daily Weather History Graph

Search for Another Location

Airport or City:

Trip Planner

Search our weather history database for the weather conditions in past years. The results will help you decide how hot, cold, wet, or windy it might be!

Date:

Astronomy

Dec. 09, 2013 Rise Set
Actual Time 7:41 AM CST 5:49 PM CST
Civil Twilight 7:14 AM CST 6:15 PM CST
Nautical Twilight 6:44 AM CST 6:46 PM CST
Astronomical Twilight 6:14 AM CST 7:16 PM CST
Moon 12:57 PM CST 12:22 AM CST
Length of Visible Light 11h 01m
Length of Day
10h 07m
Waxing Crescent, 51% of the Moon is Illuminated
Dec 9
Waxing Crescent
Dec 17
Full
Dec 25
Last Quarter
Jan 1
New
Jan 7
First Quarter

Hourly Weather History & Observations

Time (CST) Temp. Windchill Dew Point Humidity Pressure Visibility Wind Dir Wind Speed Gust Speed Precip Events Conditions
12:53 AM 33.1 °F 27.7 °F 30.0 °F 89% 29.97 in 10.0 mi East 5.8 mph - N/A   Clear
1:53 AM 32.0 °F 27.5 °F 28.9 °F 88% 29.96 in 10.0 mi NNE 4.6 mph - N/A   Clear
2:53 AM 30.9 °F 24.3 °F 28.9 °F 92% 29.98 in 10.0 mi North 6.9 mph - N/A   Clear
3:53 AM 30.0 °F 23.2 °F 28.0 °F 92% 29.96 in 10.0 mi North 6.9 mph - N/A   Clear
4:53 AM 28.9 °F 23.9 °F 27.0 °F 92% 29.96 in 10.0 mi North 4.6 mph - N/A   Clear
5:53 AM 28.9 °F 20.4 °F 26.1 °F 89% 29.97 in 10.0 mi North 9.2 mph - N/A   Clear
6:53 AM 30.0 °F 22.4 °F 27.0 °F 88% 30.02 in 10.0 mi North 8.1 mph - N/A   Clear
7:53 AM 28.0 °F 21.7 °F 26.1 °F 92% 30.05 in 10.0 mi NE 5.8 mph - N/A   Clear
8:53 AM 33.1 °F 23.4 °F 28.9 °F 85% 30.06 in 10.0 mi ENE 13.8 mph - N/A   Clear
9:53 AM 35.1 °F 27.4 °F 28.9 °F 78% 30.11 in 10.0 mi NE 10.4 mph - N/A   Clear
10:53 AM 37.0 °F 29.8 °F 30.0 °F 76% 30.13 in 10.0 mi ENE 10.4 mph - N/A   Clear
11:34 AM 36.0 °F 28.0 °F 28.9 °F 76% 30.14 in 10.0 mi NNE 11.5 mph 18.4 mph N/A   Mostly Cloudy
11:53 AM 37.0 °F 29.8 °F 30.0 °F 76% 30.14 in 10.0 mi NE 10.4 mph - N/A   Mostly Cloudy
12:53 PM 34.0 °F 25.5 °F 28.9 °F 82% 30.15 in 10.0 mi NNE 11.5 mph - N/A   Overcast
1:53 PM 33.1 °F 24.4 °F 28.0 °F 82% 30.15 in 10.0 mi NE 11.5 mph - N/A   Overcast
2:06 PM 34.0 °F 25.5 °F 28.0 °F 79% 30.13 in 10.0 mi NE 11.5 mph - N/A   Overcast
2:53 PM 33.1 °F 25.5 °F 28.0 °F 82% 30.15 in 10.0 mi NE 9.2 mph - N/A   Overcast
3:08 PM 33.1 °F 25.5 °F 28.0 °F 82% 30.13 in 10.0 mi ENE 9.2 mph - N/A   Overcast
3:53 PM 33.1 °F 24.9 °F 28.0 °F 82% 30.17 in 10.0 mi NE 10.4 mph - N/A   Overcast
4:00 PM 33.1 °F 24.4 °F 28.0 °F 82% 30.16 in 10.0 mi NE 11.5 mph - N/A   Overcast
4:53 PM 32.0 °F 22.5 °F 27.0 °F 82% 30.22 in 10.0 mi NNE 12.7 mph - N/A   Overcast
5:27 PM 30.9 °F 20.2 °F 27.0 °F 85% 30.21 in 10.0 mi NE 15.0 mph - N/A   Overcast
5:53 PM 30.9 °F 21.2 °F 27.0 °F 85% 30.27 in 10.0 mi NNE 12.7 mph - N/A   Overcast
6:08 PM 30.9 °F 22.2 °F 27.0 °F 85% 30.24 in 10.0 mi NNE 10.4 mph - N/A   Overcast
6:53 PM 30.9 °F 22.8 °F 26.1 °F 82% 30.30 in 10.0 mi NE 9.2 mph - N/A   Overcast
7:29 PM 30.0 °F 22.4 °F 26.1 °F 85% 30.29 in 10.0 mi NE 8.1 mph - N/A   Partly Cloudy
7:53 PM 28.9 °F 25.2 °F 26.1 °F 89% 30.35 in 10.0 mi NE 3.5 mph - N/A   Clear
8:53 PM 28.0 °F 24.2 °F 25.0 °F 88% 30.37 in 10.0 mi South 3.5 mph - N/A   Clear
9:53 PM 26.1 °F 19.4 °F 24.1 °F 92% 30.39 in 10.0 mi SW 5.8 mph - N/A   Clear
10:53 PM 26.1 °F 20.5 °F 23.0 °F 88% 30.40 in 10.0 mi SW 4.6 mph - N/A   Clear
11:14 PM 26.1 °F 21.9 °F 23.0 °F 88% 30.38 in 10.0 mi WSW 3.5 mph - N/A   Mostly Cloudy
11:48 PM 26.6 °F 22.6 °F 23.0 °F 86% 30.38 in 10.0 mi West 3.5 mph - N/A   Mostly Cloudy
11:53 PM 26.1 °F 21.9 °F 23.0 °F 88% 30.41 in 10.0 mi WNW 3.5 mph - N/A   Mostly Cloudy